Regional Weather Roundup
Issued by NWS Newport/Morehead, NC

Current Version | Previous Version | Graphics & Text | Print | Product List | Glossary Off
Versions: 1 2 3 4 5 6 7 8 9 10 11 12 13 14 15 16 17 18 19 20 21 22 23 24 25 26 27 28 29 30 31 32 33 34 35 36 37 38 39 40 41 42 43 44 45 46 47 48 49 50

314
ASUS42 KMHX 272025
RWRMHX
WEATHER ROUNDUP FOR EASTERN NORTH CAROLINA
NATIONAL WEATHER SERVICE NEWPORT/MOREHEAD CITY NC
400 PM EDT THU APR 27 2017

NOTE: "FAIR" INDICATES FEW OR NO CLOUDS BELOW 12,000 FEET
WITH NO SIGNIFICANT WEATHER AND/OR OBSTRUCTIONS TO VISIBILITY

NCZ015>017-031-032-045>047-102-103-272100-
NORTH COAST

CITY           SKY/WX    TMP DP  RH WIND       PRES   REMARKS
EDENTON        MOSUNNY   83  63  51 SW12      29.87F
ELIZABETH CITY SUNNY     82  64  54 SW16      29.87S
KITTY HAWK     CLEAR     78  65  63 S9G18     29.88S
MANTEO         SUNNY     76  68  76 S15G21    29.90S

$$

NCZ045>047-081-094-103-104-272100-
CENTRAL COAST

CITY           SKY/WX    TMP DP  RH WIND       PRES   REMARKS
FRISCO         SUNNY     78  65  63 SW9       29.92F HAZE

$$

NCZ095-097-098-100-101-272100-
SOUTHERN COAST

CITY           SKY/WX    TMP DP  RH WIND       PRES   REMARKS
BEAUFORT       MOSUNNY   76  69  79 S10G21    29.92F
CEDAR ISLAND   NOT AVBL
JACKSONVILLE   SUNNY     80  66  62 S17G24    29.89
PINEY ISLAND   CLEAR    N/A N/A N/A SW20G28   29.91S
WILMINGTON     MOSUNNY   82  61  48 SW17G25   29.91S


$$

NCZ011>013-027>030-043-044-078>080-089-090>093-098-272100-
COASTAL PLAIN

CITY           SKY/WX    TMP DP  RH WIND       PRES   REMARKS
AHOSKIE          N/A     80  60  50 S12       29.85F
CLINTON        CLOUDY    82  62  49 SW8       29.89R
ELIZABETHTOWN  MOSUNNY   81  62  52 SW9       29.89S
GOLDSBORO      MOSUNNY   84  56  38 S10       29.85F
GREENVILLE     MOSUNNY   82  59  44 SW13G18   29.89F
HAVELOCK       NOT AVBL
KENANSVILLE    SUNNY     84  57  39 SW5       29.87F
KINSTON        MOSUNNY   84  55  37 S9        29.88F
NEW BERN       SUNNY     82  58  43 S16G24    29.90S
RICHLANDS      MOSUNNY   83  63  50 S10G21    29.88F
ROCKY MOUNT    CLOUDY    80  59  48 S9        29.87F
WASHINGTON     MOSUNNY   82  60  46 SW10G20   29.87F
WHITEVILLE     MOSUNNY   81  64  57 S12G17    29.89F

$$

AMZ130-135-150-152-154-156-158-170-250-252-270-ANZ085-086-088-633-658-670-272100-
MARINE OBSERVATIONS

STATION/POSITION TIME  TEMP    WIND        PRES    WAVE   SWELL
                       AIR SEA DIR/SP/G            HT/PER HT/PER
                 (UTC) (F)     (DEG/KT/KT) (MB)    (FT/S) (FT/S)
CHESAPEAKE LIGHT NOT AVBL
64 E VA BEACH    1950   61 57  170/ 10/ 12 1013.2    5/ 9   5/ 9
DUCK             2000   69 59  140/ 16/ 18 1011.2
2 E DUCK         2000      63                N/A     4/12   2/12
OREGON INLET     2000   75 71  170/ 12/ 15 1012.4
13E OREGON INLT  1948      65                N/A     4/ 8   3/ 8
HATTERAS CG      2000   76 69  200/  6/ 10 1013.0
DIAMOND BUOY     1950   76 78  220/ 16/ 17 1013.4    5/ 9   3/ 9
CAPE LOOKOUT     2000   74     180/ 11/ 13 1013.0
BEAUFORT LAB     2000   74 69  190/ 11/ 12 1012.5
30 SE NEW RVR IN 2008   73     230/  8/ 12 1013.7
30 SE NEW RVR IN 2013      73                N/A     4/ 8   2/13
27 SE WRIGHTSVLE 2008   74 73  200/ 12/ 17 1012.7
5 SE WRIGHTSVLE  2008   73 71  200/ 10/ 16 1013.2
225 S CAPE HAT   1950   74 75  160/ 14/ 16 1016.9    5/ 8   3/ 8
41 SE CHARLESTON 2000   76 74  170/ 10/ 12 1013.4

$$




USA.gov is the U.S. government's official web portal to all federal, state and local government web resources and services.